Overview Statistics Trail Chart Weather Telemetry Raw packets
 

This is the latest recevied weather packets stored in our database for station/object WE1C. If no packets are shown the sender has not sent any weather packets the latest 10 day(s).

<< 109 110 111 112 113 114 >>
Time Temp. Humidity Pressure Rain* Wind** Luminosity Snow
1787783262 21.67° C 82% 1045.8 hPa 0 mm - 30 W/m² -
1787782957 21.67° C 82% 1045.9 hPa 0 mm - 32 W/m² -
1787782656 21.67° C 82% 1045.7 hPa 0 mm - 35 W/m² -
1787782352 22.22° C 81% 1045.6 hPa 0 mm - 35 W/m² -
1787782047 22.22° C 79% 1045.8 hPa 0 mm - 37 W/m² -
1787781743 22.22° C 79% 1046 hPa 0 mm - 38 W/m² -
1787781440 22.22° C 77% 1045.8 hPa 0 mm - 39 W/m² -
1787781140 22.78° C 78% 1046.1 hPa 0 mm - 41 W/m² -
1787780839 22.78° C 75% 1045.8 hPa 0 mm - 85 W/m² -
1787780533 22.78° C 74% 1045.8 hPa 0 mm - 52 W/m² -
1787780228 22.78° C 76% 1045.8 hPa 0 mm - 77 W/m² -
1787779924 22.22° C 77% 1045.8 hPa 0 mm - 218 W/m² -
1787779623 22.22° C 77% 1045.8 hPa 0 mm - 72 W/m² -
1787779318 22.22° C 78% 1045.8 hPa 0 mm - 59 W/m² -
1787779018 22.22° C 78% 1045.8 hPa 0 mm - 53 W/m² -
1787778714 22.22° C 77% 1045.8 hPa 0 mm - 55 W/m² -
1787778410 22.22° C 77% 1045.9 hPa 0 mm - 54 W/m² -
1787778105 22.78° C 75% 1045.8 hPa 0 mm - 55 W/m² -
1787777804 23.33° C 72% 1046 hPa 0 mm - 52 W/m² -
1787777501 23.33° C 70% 1046 hPa 0 mm - 49 W/m² -
1787777195 23.89° C 66% 1046 hPa 0 mm - 50 W/m² -
1787776894 23.89° C 67% 1046 hPa 0 mm - 54 W/m² -
1787776593 23.89° C 68% 1046.1 hPa 0 mm - 62 W/m² -
1787776292 23.89° C 66% 1045.9 hPa 0 mm - 68 W/m² -
1787775991 24.44° C 69% 1046 hPa 0 mm - 65 W/m² -

* Rain latest hour (hover to see other rain measurements)
** Current wind speed in m/s (hover to see current wind gust speed)